This is the latest recevied weather packets stored in our database for station/object N7WSS. If no packets are shown the sender has not sent any weather packets the latest 10 day(s).
| Time | Temp. | Humidity | Pressure | Rain* | Wind** | Luminosity | Snow |
|---|---|---|---|---|---|---|---|
| 1787913146 | 28.89° C | 41% | 1014.9 hPa | 0 mm | - | - | - |
| 1787912845 | 29.44° C | 39% | 1014.9 hPa | 0 mm | - | - | - |
| 1787912540 | 28.89° C | 40% | 1014.8 hPa | 0 mm | - | - | - |
| 1787912238 | 28.33° C | 40% | 1014.7 hPa | 0 mm | - | - | - |
| 1787911933 | 27.78° C | 41% | 1014.8 hPa | 0 mm | - | - | - |
| 1787911629 | 27.78° C | 41% | 1015.1 hPa | 0 mm | - | - | - |
| 1787911328 | 28.33° C | 40% | 1015.1 hPa | 0 mm | - | - | - |
| 1787911024 | 28.33° C | 40% | 1015 hPa | 0 mm | - | - | - |
| 1787910721 | 28.89° C | 39% | 1015.1 hPa | 0 mm | - | - | - |
| 1787910420 | 28.89° C | 39% | 1015 hPa | 0 mm | - | - | - |
| 1787910116 | 28.89° C | 39% | 1015.3 hPa | 0 mm | - | - | - |
| 1787909813 | 28.89° C | 38% | 1015.4 hPa | 0 mm | - | - | - |
| 1787909512 | 29.44° C | 38% | 1015 hPa | 0 mm | - | - | - |
| 1787909208 | 29.44° C | 38% | 1015.2 hPa | 0 mm | - | - | - |
| 1787908903 | 29.44° C | 38% | 1015.2 hPa | 0 mm | - | - | - |
| 1787908602 | 29.44° C | 38% | 1015.2 hPa | 0 mm | - | - | - |
| 1787908297 | 29.44° C | 37% | 1015.1 hPa | 0 mm | - | - | - |
| 1787907996 | 29.44° C | 37% | 1015 hPa | 0 mm | - | - | - |
| 1787907692 | 29.44° C | 37% | 1015.2 hPa | 0 mm | - | - | - |
| 1787907392 | 29.44° C | 38% | 1015 hPa | 0 mm | - | - | - |
| 1787907087 | 30° C | 37% | 1015 hPa | 0 mm | - | - | - |
| 1787906784 | 30° C | 37% | 1014.7 hPa | 0 mm | - | - | - |
| 1787906479 | 30° C | 36% | 1014.8 hPa | 0 mm | - | - | - |
| 1787906179 | 30° C | 36% | 1014.7 hPa | 0 mm | - | - | - |
| 1787905875 | 30° C | 37% | 1014.8 hPa | 0 mm | - | - | - |
* Rain latest hour (hover to see other rain measurements)
** Current wind speed in m/s (hover to see current wind gust speed)